DAL40 YSSY-KLAX

Flight info

Callsign DAL40
Flight time N/A
Altitude 35000
Route NOBAR B580 IFFEY DCT 2940S15727E 2657S16142E 2617S16300E 2359S16710E 2200S17010E 1925S17344E 1533S17814E/N0494F370 1159S17824W 0915S17603W 0521S17246W 0500S17226W 0325S17058W 0023N16659W/N0487F390 0417N16253W 0715N15931W 0857N15726W 1202N15316W 1507N14921W 1705N14651W 2018N14212W/N0478F410 2256N13748W 2510N13346W 2814N12824W 3046N12406W DCT FOOTS DCT FICKY DCT ROSIN DCT SXC LEENA8
Aircraft A359/H-SDE2E3GHIJ3J4J5LM1ORWXY/LB1D1

Departure

Time N/A
Airport Sydney Kingsford Smith International Airport (YSSY)

Arrival

Time 2026-04-26 17:26
Airport Los Angeles International Airport (KLAX)
Time Latitude Longitude Altitude Speed Heading
2026-04-26 17:08 33.37375 -117.86193 7001 ft 266 kts 343°
2026-04-26 17:08 33.39067 -117.87024 7005 ft 262 kts 324°
2026-04-26 17:08 33.40436 -117.88419 6997 ft 255 kts 312°
2026-04-26 17:09 33.41633 -117.89950 7004 ft 250 kts 310°
2026-04-26 17:09 33.42413 -117.90966 7006 ft 249 kts 310°
2026-04-26 17:09 33.44158 -117.92791 7000 ft 251 kts 326°
2026-04-26 17:09 33.45769 -117.93626 7007 ft 254 kts 338°
2026-04-26 17:10 33.47465 -117.94254 7006 ft 255 kts 340°
2026-04-26 17:10 33.49168 -117.94859 7002 ft 255 kts 339°
2026-04-26 17:10 33.50877 -117.95470 6968 ft 256 kts 339°
2026-04-26 17:10 33.52579 -117.96081 6738 ft 256 kts 339°
2026-04-26 17:11 33.54288 -117.96697 6283 ft 257 kts 339°
2026-04-26 17:11 33.56009 -117.97322 5786 ft 259 kts 340°
2026-04-26 17:11 33.57728 -117.97956 5393 ft 257 kts 339°
2026-04-26 17:11 33.59427 -117.98585 5079 ft 252 kts 339°
2026-04-26 17:12 33.62726 -117.99805 5004 ft 250 kts 340°
2026-04-26 17:12 33.64395 -118.00428 5004 ft 251 kts 339°
2026-04-26 17:13 33.67745 -118.01664 5002 ft 252 kts 339°
2026-04-26 17:13 33.69417 -118.02279 4999 ft 249 kts 339°
2026-04-26 17:13 33.72512 -118.03393 4995 ft 220 kts 339°
2026-04-26 17:14 33.73978 -118.03912 5003 ft 219 kts 340°
2026-04-26 17:14 33.76914 -118.04940 4966 ft 221 kts 342°
2026-04-26 17:14 33.78460 -118.04873 4957 ft 229 kts 15°
2026-04-26 17:15 33.81224 -118.02909 4959 ft 234 kts 31°
2026-04-26 17:15 33.82558 -118.01789 4957 ft 234 kts 31°
2026-04-26 17:15 33.83892 -118.00669 4987 ft 234 kts 31°
2026-04-26 17:16 33.85230 -117.99555 4991 ft 234 kts 31°
2026-04-26 17:16 33.86568 -117.98441 4989 ft 234 kts 31°
2026-04-26 17:16 33.87907 -117.97329 4993 ft 234 kts 31°
2026-04-26 17:16 33.89242 -117.96228 4986 ft 232 kts 31°
2026-04-26 17:17 33.90587 -117.95149 4982 ft 232 kts 27°
2026-04-26 17:17 33.92108 -117.94633 4907 ft 225 kts 355°
2026-04-26 17:17 33.93541 -117.95118 4667 ft 214 kts 323°
2026-04-26 17:17 33.94519 -117.96438 4407 ft 209 kts 297°
2026-04-26 17:18 33.95146 -117.97986 4158 ft 209 kts 292°
2026-04-26 17:18 33.95732 -117.99626 3897 ft 211 kts 291°
2026-04-26 17:18 33.96309 -118.01250 3642 ft 211 kts 291°
2026-04-26 17:18 33.96880 -118.02830 3595 ft 210 kts 291°
2026-04-26 17:19 33.98050 -118.06054 3585 ft 208 kts 289°
2026-04-26 17:19 33.98311 -118.07753 3587 ft 206 kts 272°
2026-04-26 17:19 33.98269 -118.09482 3599 ft 207 kts 265°
2026-04-26 17:20 33.98128 -118.11208 3590 ft 207 kts 264°
2026-04-26 17:20 33.98027 -118.12381 3594 ft 208 kts 264°
2026-04-26 17:20 33.97808 -118.14655 3572 ft 201 kts 263°
2026-04-26 17:20 33.97650 -118.16259 3603 ft 187 kts 263°
2026-04-26 17:21 33.97501 -118.17808 3595 ft 186 kts 264°
2026-04-26 17:21 33.97355 -118.19309 3554 ft 187 kts 263°
2026-04-26 17:21 33.97194 -118.20909 3341 ft 185 kts 263°
2026-04-26 17:21 33.97035 -118.22441 3083 ft 183 kts 263°
2026-04-26 17:22 33.96880 -118.23948 2816 ft 179 kts 263°
2026-04-26 17:22 33.96732 -118.25389 2558 ft 167 kts 264°
2026-04-26 17:22 33.96595 -118.26732 2333 ft 155 kts 263°
2026-04-26 17:22 33.96468 -118.27963 2155 ft 143 kts 263°
2026-04-26 17:23 33.96350 -118.29110 1949 ft 132 kts 264°
2026-04-26 17:23 33.96243 -118.30160 1765 ft 122 kts 263°
2026-04-26 17:23 33.96138 -118.31172 1621 ft 122 kts 264°
2026-04-26 17:23 33.96036 -118.32172 1460 ft 122 kts 263°
2026-04-26 17:24 33.95932 -118.33186 1274 ft 122 kts 263°
2026-04-26 17:24 33.95826 -118.34206 1109 ft 124 kts 263°
2026-04-26 17:24 33.95721 -118.35252 916 ft 128 kts 262°
2026-04-26 17:24 33.95609 -118.36314 756 ft 127 kts 261°
2026-04-26 17:25 33.95498 -118.37345 568 ft 119 kts 263°
2026-04-26 17:25 33.95401 -118.38307 420 ft 117 kts 263°
2026-04-26 17:25 33.95305 -118.39286 288 ft 118 kts 263°
2026-04-26 17:25 33.95202 -118.40270 139 ft 117 kts 262°
2026-04-26 17:26 33.95107 -118.41207 99 ft 103 kts 264°
2026-04-26 17:26 33.95044 -118.41828 102 ft 53 kts 263°
2026-04-26 17:26 33.95009 -118.42163 100 ft 25 kts 261°
2026-04-26 17:26 33.94955 -118.42339 104 ft 22 kts 237°
2026-04-26 17:27 33.94882 -118.42446 104 ft 12 kts 222°
2026-04-26 17:27 33.94803 -118.42486 105 ft 13 kts 188°
2026-04-26 17:27 33.94703 -118.42482 104 ft 15 kts 173°
2026-04-26 17:27 33.94670 -118.42442 103 ft 5 kts 94°
2026-04-26 17:28 33.94669 -118.42370 100 ft 13 kts 86°
2026-04-26 17:28 33.94685 -118.42233 102 ft 19 kts 83°
2026-04-26 17:28 33.94701 -118.42068 103 ft 19 kts 85°
2026-04-26 17:28 33.94710 -118.41907 99 ft 19 kts 76°
2026-04-26 17:29 33.94729 -118.41741 103 ft 21 kts 84°
2026-04-26 17:29 33.94740 -118.41629 100 ft 20 kts 83°
2026-04-26 17:29 33.94771 -118.41392 102 ft 23 kts 76°
2026-04-26 17:29 33.94802 -118.41197 104 ft 23 kts 82°
2026-04-26 17:30 33.94824 -118.41000 102 ft 20 kts 81°
2026-04-26 17:30 33.94774 -118.40888 104 ft 16 kts 172°
2026-04-26 17:30 33.94689 -118.40901 101 ft 13 kts 184°
2026-04-26 17:30 33.94601 -118.40900 100 ft 13 kts 179°
2026-04-26 17:31 33.94548 -118.40933 102 ft 7 kts 235°
2026-04-26 17:31 33.94542 -118.40989 102 ft 7 kts 265°
2026-04-26 17:31 33.94541 -118.41002 102 ft 0 kts 263°